Showing default

DRAGON CRS-31, 61791

Orbit data source: Space-Track

DRAGON CRS-31, 61791 is a payload satellite owned by SpaceX (US) in LEO that was launched on Tue, 05 Nov 2024 UTC via an FALCON 9 launch vehicle from the Air Force Eastern Test Range (AFETR). Payloads include a variety of satellites, spacecraft, and rockets equipped with specific instruments for various scientific and technological missions. These include communications satellites like Starlink; space stations such as the ISS; scientific satellites like the Hubble; Earth observation satellites from companies like Planet Labs, Umbra, and HawkEye 360; GPS; miniature CubeSats for education and research; and military/defense satellites.

Loading next visibility...
DRAGON CRS-31 details
Identifier
61791, 2024-200A
Orbit
LEO
Last TLE update1 day ago
Origin
Flag of USSpaceX (US)
ManufacturerSpaceX
MissionOperational spacecraft
Bus & MotorDRAGON CM, Unknown motor
Mass~15,600 kg wet, ~9,000 kg dry
Launch date (UTC)
2024-11-05 (1 month ago)
Launch vehicle
FALCON 9
Launch site
Air Force Eastern Test Range (AFETR)
Object type
Payload
Rocket body
Debris
Shape & HBRUnknown
Radar Cross SectionRCS unknown

Expand to show TLE details & history

TLE from 1 day ago
0 DRAGON CRS-31
1 61791U 24200A   24347.86365743  .00015740  00000-0  27785-3 0  9993
2 61791  51.6369 150.1519 0007316 333.1996  26.8614 15.50525942  5661
Epoch: 2024-12-12T20:43Z
Definitive object data (Epoch: 2024-12-12T20:43:40.001Z)
Latitude-0.00006°
Longitude117.1973°
Altitude411.498 km
Speed7.668 km/s
True Right ascension10h 00m 36s
True Declination0° 00' 00"
Sunlit
Object was in daylight at TLE epoch
Visualization TLE readout
Latitude8.44379°
Longitude-74.45894°
Altitude419.985 km
Speed7.658 km/s
Apparent Right ascension00h 13m 30s
Apparent Declination-40° 56' 43"
Sunlit
Object is in daylight
Visualization observer readout
Local Sidereal Time19:11:01
Azimuth130.413° SE
Elevation-16.059°
Doppler factor1
Orbital elements
Apogee altitude420.668 km
Perigee altitude410.728 km
Semi-major axis6,793.835 km
Eccentricity0.0007316
Inclination51.6369°
RAAN150.1519°
Arg. of periapsis333.1996°
True anomaly26.89931°
Mean anomaly26.8614°
Eccentric anomaly26.88035°
Mean motion3.87588 °/min
BSTAR0.00027785
Orbital period92.88 mins
Loading maneuver chart data...
Loading historical data...
Loading historical data...
Loading historical data...
Loading historical data...
Loading historical data...
Loading historical data...
Loading historical data...
Other satellites on launch #200 in the year 2024 (2024-11-05 UTC)

DRAGON CRS-31 Visibility forecast

Observer location: undefined°, undefined

Span
Click to sort rows by Start time (UTC) header in descending order
Start Az.
Max El. time (UTC)
Max El. Az.
Max El.
End time (UTC)
End Az.
5 mins2024-12-14 13:07:24.590Z205.915° SW2024-12-14 13:09:24.590Z156.297° SSE34.414°2024-12-14 13:12:24.590Z66.445° ENE
5 mins2024-12-14 19:37:24.590Z322.36° NNW2024-12-14 19:39:24.590Z45.377° ENE39.457°2024-12-14 19:42:24.590Z113.327° SE
|